FENGYUN 1C DEB

Satellite information

Favourite Embed

Satellite Type and Status

DEBRISIN ORBIT

Key statistics

Satellite FENGYUN 1C DEB at a glance.

Uptime

9616

Days in orbit

Revolutions

≈ 14.5

Per day

Orbit

SSO

Sun Synchronous Orbit

Inclination

99.0

Latest

Satellite identification and parameters

Extended collection of information and parameters for FENGYUN 1C DEB.

Object identification

Identified? True

Debris? True

Object name: FENGYUN 1C DEB

International designator: 1999-025SW

Object number (NORAD): 30141

Object ID (CCSDS): 30141

Country: PEOPLES REPUBLIC OF CHINA (PRC)

Current information (Y/N): Y

RCS size: SMALL

Orbital parameters

Period: 99.379 minutes

Inclination: 99.0099 deg

SMA: 7107.039 km

Apoapsis: 741.807 km

Periapsis: 716.002 km

RAAN: 163.4484 deg

Eccentricy: 0.00181545

Argument of periapsis: 339.216 deg

Mean anomaly: 20.8292 deg

Mean motion: 14.49004408 rev/day

Mean motion (dot): 0.00010858 rev/day2

B* drag term: 0.0028659531 1/REarth

Two-line elements (TLE)

Creation date: Sept. 5, 2025, 7:38 p.m.

Reference frame: TEME

Reference center: EARTH

Epoch: Sept. 5, 2025, 11:48 a.m. UTC

TLE line 0: 0 FENGYUN 1C DEB

TLE line 1: 1 30141U 99025SW 25248.49175747 .00010858 00000-0 28660-2 0 9995

TLE line 2: 2 30141 99.0099 163.4484 0018154 339.2160 20.8292 14.49004408968202

Live tracking on map

Real-time ground track for satellite FENGYUN 1C DEB.

In-orbit conjunctions

A list of the most updated potential collisions computed for object FENGYUN 1C DEB.

Target Orbit TCA Probability of collision Miss distance Type
COSMOS 2251 DEB LEO 2024-11-20 08:09:54 0.0001381715 95.0 (m) DEBRIS
CZ-6A DEB LEO 2024-10-20 03:48:26 0.0001294156 845.0 (m) DEBRIS
BLOCK DM-SL R/B GTO 2024-10-01 16:51:05 0.000190629 68.0 (m) ROCKET BODY
SL-8 R/B LEO 2024-09-01 15:29:29 0.0001285141 156.0 (m) ROCKET BODY

Associated space launch

Chinese polar orbiting meteorological satellite

FENGYUN 1C DEB was lifted into orbit during the mission ‘Long March 4B | Feng Yun 1C’, on board a Long March 4B space rocket.

The launch took place on May 10, 1999, 1:33 a.m. from Launch Complex 7.

For more information about the launch, click the button.

Launch to space Long March 4B | Feng Yun 1C
Long March 4B | Feng Yun 1C

Agency: N/A

Status: Launch Successful

Launch date: May 10, 1999, 1:33 a.m. UTC

Rocket: Long March 4B

Launch pad: Launch Complex 7

Location: Taiyuan Satellite Launch Center, People's Republic of China

...

Latest news about this satellite

There are no fresh news available about this satellite. Check back as we update our databases every day.


Newsletter sign-up

Weekly statistics, charts and insights to help you stay on top of the space industry.